Location: *
(41.3833°S, 177.8333°W)
Time: 02:58:11
(UTC+00:00)

USA 229 DEB - Pass Details

Date: 01 April 2020
Orbit: 983 x 1229 km, 63.4° (Epoch: 30 May)

Event Time Altitude Azimuth Distance (km) Brightness Sun altitude
Rises 16:58:00 0° 214° (SW) 3,924 6.4 -13.9°
Reaches altitude 10° 17:00:46 10° 211° (SSW) 2,927 5.7 -13.4°
Maximum altitude 17:07:38 67° 128° (SE) 1,120 4.0 -12.1°
Drops below altitude 10° 17:14:05 10° 46° (NE) 2,767 6.5 -10.9°
Sets 17:16:38 0° 43° (NE) 3,696 7.2 -10.4°
